Location: Arbon
(43.0005°N, 0.7472°E)
Time: 12:53:34
(UTC+00:00)

Vanguard 1 - Pass Details

Date: 05 December 2020
Orbit: 648 x 3834 km, 34.3° (Epoch: 23 January)

Event Time Altitude Azimuth Distance (km) Brightness Sun altitude
Rises 08:19:47 0° 268° (W) 4,022 12.8 9.0°
Reaches altitude 10° 08:22:27 10° 257° (WSW) 3,372 12.5 9.3°
Maximum altitude 08:29:54 31° 199° (SSW) 2,937 12.9 10.3°
Drops below altitude 10° 08:41:58 10° 146° (SE) 5,541 16.4 11.9°
Sets 08:48:02 0° 138° (SE) 7,071 16.6 12.6°
